レモン彗星

C/2009 S3 ( Lemmon )

English version
Home page
Updated on July 12, 2021

---------------------------------------------------------------------

・ プロフィール

発見日 2009年9月24日
発見光度 20.9等
発見者 Mt. Lemmon survey

・ 写真集

・ 軌道要素

Epoch 2011 Dec. 25.0 TT = JDT 2455920.5
T 2011 Dec. 11.31631 TT                                 MPC
q   6.4745191            (2000.0)            P               Q
z  -0.0002195      Peri.  129.76641     +0.72047635     +0.31822968
 +/-0.0000007      Node   225.13253     -0.09573042     +0.92562736
e   1.0014210      Incl.   60.38463     +0.68684024     -0.20480200
From 232 observations 2009 Sept. 24-2014 Jan. 27, mean residual 0".5.

・ 光度変化

        m1 = 6.0 + 5 logΔ + 10.0 log r

---------------------------------------------------------------------

軌道要素はM.P.E.C. 2014-C43に掲載されたものです。
光度グラフはComet for Windowsで作成したものです。

---------------------------------------------------------------------

Copyright(C) Seiichi Yoshida (comet@aerith.net). All rights reserved.